TimeEST,TemperatureF,Dew PointF,Humidity,Sea Level PressureIn,VisibilityMPH,Wind Direction,Wind SpeedMPH,Gust SpeedMPH,PrecipitationIn,Events,Conditions,WindDirDegrees,DateUTC
12:15 AM,44.6,32.0,61,29.83,10.0,WNW,4.6,-,N/A,,Clear,290,2013-11-08 05:15:00
12:35 AM,42.8,32.0,66,29.83,10.0,West,4.6,-,N/A,,Clear,260,2013-11-08 05:35:00
12:55 AM,39.2,33.8,81,29.84,10.0,WSW,3.5,-,N/A,,Clear,240,2013-11-08 05:55:00
1:15 AM,39.2,33.8,81,29.84,10.0,WSW,3.5,-,N/A,,Clear,250,2013-11-08 06:15:00
1:35 AM,39.2,33.8,81,29.84,10.0,West,3.5,-,N/A,,Clear,260,2013-11-08 06:35:00
1:55 AM,37.4,33.8,87,29.85,10.0,West,3.5,-,N/A,,Clear,260,2013-11-08 06:55:00
2:15 AM,37.4,32.0,81,29.84,10.0,West,4.6,-,N/A,,Clear,270,2013-11-08 07:15:00
2:35 AM,37.4,32.0,81,29.85,10.0,West,4.6,-,N/A,,Clear,270,2013-11-08 07:35:00
2:55 AM,37.4,32.0,81,29.85,10.0,West,4.6,-,N/A,,Clear,270,2013-11-08 07:55:00
3:15 AM,35.6,32.0,87,29.85,10.0,West,4.6,-,N/A,,Clear,260,2013-11-08 08:15:00
3:35 AM,35.6,32.0,87,29.86,10.0,West,5.8,-,N/A,,Clear,260,2013-11-08 08:35:00
3:55 AM,35.6,30.2,81,29.87,10.0,WSW,4.6,-,N/A,,Clear,250,2013-11-08 08:55:00
4:15 AM,35.6,30.2,81,29.88,10.0,West,5.8,-,N/A,,Clear,270,2013-11-08 09:15:00
4:35 AM,35.6,30.2,81,29.89,10.0,West,4.6,-,N/A,,Clear,260,2013-11-08 09:35:00
4:55 AM,35.6,30.2,81,29.89,10.0,West,4.6,-,N/A,,Clear,260,2013-11-08 09:55:00
5:15 AM,33.8,30.2,87,29.90,10.0,West,4.6,-,N/A,,Clear,260,2013-11-08 10:15:00
5:35 AM,33.8,28.4,81,29.90,10.0,WSW,3.5,-,N/A,,Clear,250,2013-11-08 10:35:00
5:55 AM,33.8,28.4,81,29.91,10.0,WSW,4.6,-,N/A,,Clear,250,2013-11-08 10:55:00
6:15 AM,33.8,28.4,81,29.92,10.0,WSW,5.8,-,N/A,,Clear,250,2013-11-08 11:15:00
6:35 AM,33.8,28.4,81,29.93,10.0,West,5.8,-,N/A,,Clear,260,2013-11-08 11:35:00
6:55 AM,35.6,26.6,70,29.94,10.0,West,8.1,-,N/A,,Clear,260,2013-11-08 11:55:00
7:15 AM,35.6,28.4,75,29.94,10.0,WSW,6.9,-,N/A,,Clear,250,2013-11-08 12:15:00
7:35 AM,37.4,28.4,70,29.95,10.0,West,8.1,-,N/A,,Clear,260,2013-11-08 12:35:00
7:55 AM,39.2,28.4,65,29.95,10.0,West,4.6,-,N/A,,Clear,260,2013-11-08 12:55:00
8:15 AM,41.0,26.6,57,29.95,10.0,WSW,3.5,-,N/A,,Clear,250,2013-11-08 13:15:00
8:35 AM,42.8,26.6,53,29.95,10.0,WSW,4.6,-,N/A,,Clear,250,2013-11-08 13:35:00
8:55 AM,42.8,28.4,57,29.95,10.0,West,6.9,-,N/A,,Clear,260,2013-11-08 13:55:00
9:15 AM,44.6,32.0,61,29.94,10.0,WSW,5.8,-,N/A,,Clear,240,2013-11-08 14:15:00
9:35 AM,44.6,32.0,61,29.94,10.0,WSW,11.5,16.1,N/A,,Clear,250,2013-11-08 14:35:00
9:55 AM,44.6,32.0,61,29.94,10.0,WSW,10.4,-,N/A,,Clear,250,2013-11-08 14:55:00
10:15 AM,46.4,32.0,57,29.93,10.0,WSW,9.2,-,N/A,,Clear,250,2013-11-08 15:15:00
10:35 AM,46.4,33.8,62,29.92,10.0,WSW,6.9,-,N/A,,Clear,250,2013-11-08 15:35:00
10:55 AM,48.2,33.8,58,29.91,10.0,West,11.5,19.6,N/A,,Scattered Clouds,260,2013-11-08 15:55:00
11:15 AM,46.4,32.0,57,29.91,10.0,West,9.2,16.1,N/A,,Partly Cloudy,270,2013-11-08 16:15:00
11:35 AM,46.4,32.0,57,29.90,10.0,West,9.2,17.3,0.01,,Partly Cloudy,260,2013-11-08 16:35:00
11:55 AM,48.2,32.0,54,29.90,1.5,West,10.4,19.6,0.03,,Haze,270,2013-11-08 16:55:00
12:15 PM,50.0,32.0,50,29.89,-9999.0,WNW,9.2,17.3,N/A,,Mostly Cloudy,300,2013-11-08 17:15:00
12:35 PM,46.4,30.2,53,29.89,10.0,West,6.9,24.2,N/A,,Mostly Cloudy,280,2013-11-08 17:35:00
12:55 PM,46.4,30.2,53,29.88,10.0,WNW,6.9,-,N/A,,Mostly Cloudy,300,2013-11-08 17:55:00
1:15 PM,48.2,30.2,50,29.89,10.0,West,9.2,-,N/A,,Overcast,270,2013-11-08 18:15:00
1:35 PM,48.2,28.4,46,29.89,10.0,West,12.7,21.9,N/A,,Overcast,260,2013-11-08 18:35:00
1:55 PM,48.2,30.2,50,29.89,10.0,West,11.5,18.4,N/A,,Mostly Cloudy,280,2013-11-08 18:55:00
2:15 PM,48.2,30.2,50,29.89,10.0,West,13.8,21.9,N/A,,Scattered Clouds,260,2013-11-08 19:15:00
2:35 PM,46.4,30.2,53,29.90,10.0,West,6.9,20.7,N/A,,Scattered Clouds,280,2013-11-08 19:35:00
2:55 PM,48.2,30.2,50,29.90,10.0,West,11.5,19.6,N/A,,Partly Cloudy,270,2013-11-08 19:55:00
3:15 PM,48.2,28.4,46,29.91,10.0,West,10.4,19.6,N/A,,Clear,280,2013-11-08 20:15:00
3:35 PM,46.4,26.6,46,29.92,10.0,West,15.0,24.2,N/A,,Partly Cloudy,270,2013-11-08 20:35:00
3:55 PM,46.4,28.4,50,29.92,10.0,West,15.0,24.2,N/A,,Mostly Cloudy,280,2013-11-08 20:55:00
4:15 PM,46.4,28.4,50,29.93,10.0,West,10.4,16.1,N/A,,Scattered Clouds,270,2013-11-08 21:15:00
4:35 PM,44.6,28.4,53,29.94,10.0,West,12.7,19.6,N/A,,Partly Cloudy,260,2013-11-08 21:35:00
4:55 PM,44.6,28.4,53,29.95,10.0,West,6.9,19.6,N/A,,Partly Cloudy,280,2013-11-08 21:55:00
5:15 PM,44.6,26.6,49,29.96,10.0,West,11.5,20.7,N/A,,Clear,270,2013-11-08 22:15:00
5:35 PM,44.6,26.6,49,29.97,10.0,West,9.2,19.6,N/A,,Clear,270,2013-11-08 22:35:00
5:55 PM,42.8,24.8,49,29.99,10.0,West,11.5,20.7,N/A,,Clear,280,2013-11-08 22:55:00
6:15 PM,42.8,26.6,53,30.00,10.0,West,9.2,19.6,N/A,,Clear,280,2013-11-08 23:15:00
6:35 PM,42.8,26.6,53,30.01,10.0,West,8.1,17.3,N/A,,Clear,280,2013-11-08 23:35:00
6:55 PM,42.8,26.6,53,30.02,10.0,WNW,8.1,20.7,N/A,,Partly Cloudy,290,2013-11-08 23:55:00
7:15 PM,41.0,26.6,57,30.03,10.0,West,10.4,17.3,N/A,,Clear,280,2013-11-09 00:15:00
7:35 PM,41.0,24.8,53,30.04,10.0,West,10.4,17.3,N/A,,Clear,280,2013-11-09 00:35:00
7:55 PM,39.2,24.8,56,30.05,10.0,WNW,9.2,-,N/A,,Clear,290,2013-11-09 00:55:00
8:15 PM,39.2,23.0,52,30.06,10.0,West,6.9,-,N/A,,Clear,280,2013-11-09 01:15:00
8:35 PM,39.2,23.0,52,30.07,10.0,West,6.9,-,N/A,,Clear,280,2013-11-09 01:35:00
8:55 PM,39.2,21.2,49,30.08,10.0,West,6.9,-,N/A,,Clear,280,2013-11-09 01:55:00
9:15 PM,37.4,21.2,52,30.08,10.0,West,6.9,-,N/A,,Clear,270,2013-11-09 02:15:00
9:35 PM,37.4,21.2,52,30.09,10.0,West,4.6,-,N/A,,Clear,270,2013-11-09 02:35:00
9:55 PM,37.4,21.2,52,30.09,10.0,West,5.8,-,N/A,,Clear,260,2013-11-09 02:55:00
10:15 PM,37.4,23.0,56,30.09,10.0,West,5.8,-,N/A,,Clear,260,2013-11-09 03:15:00
10:35 PM,35.6,23.0,60,30.09,10.0,WSW,4.6,-,N/A,,Clear,250,2013-11-09 03:35:00
10:55 PM,35.6,23.0,60,30.09,10.0,West,4.6,-,N/A,,Clear,260,2013-11-09 03:55:00
11:15 PM,35.6,23.0,60,30.10,10.0,West,5.8,-,N/A,,Clear,260,2013-11-09 04:15:00
11:35 PM,35.6,23.0,60,30.11,10.0,West,5.8,-,N/A,,Clear,260,2013-11-09 04:35:00
11:55 PM,35.6,23.0,60,30.11,10.0,WSW,4.6,-,N/A,,Clear,240,2013-11-09 04:55:00